• In Deutschland
  • Länderverzeichnis
  • Für 7 Tage
  • Wassertemperatur
  • Satellitenkarten
  • Wetterkarte
  • Widgets
  • user-avatar
    Anmelden

    Stündliche Wetter Mykhailivtsi

    Heute, 20 Oktober, Samstag

    Zeit Temperatur Niederschläge Wind Luftdruck Luftfeuchtigkeit
    00:00 +13°C° 0 mm 2 m/S 738 mmHg 78%
    01:00 +13°C° 0 mm 2 m/S 738 mmHg 80%
    02:00 +13°C° 0 mm 2 m/S 738 mmHg 82%
    03:00 +13°C° 0 mm 2 m/S 738 mmHg 83%
    04:00 +12°C° 0 mm 2 m/S 738 mmHg 84%
    05:00 +12°C° 0 mm 2 m/S 738 mmHg 85%
    06:00 +11°C° 0.1 mm 3 m/S 738 mmHg 84%
    07:00 +12°C° 0.1 mm 3 m/S 739 mmHg 83%
    08:00 +12°C° 0 mm 3 m/S 739 mmHg 81%
    09:00 +13°C° 0.1 mm 3 m/S 739 mmHg 77%
    10:00 +14°C° 0.1 mm 4 m/S 739 mmHg 74%
    11:00 +15°C° 0.1 mm 4 m/S 739 mmHg 70%
    12:00 +17°C° 0 mm 4 m/S 739 mmHg 66%
    13:00 +17°C° 0 mm 4 m/S 739 mmHg 63%
    14:00 +16°C° 0 mm 5 m/S 739 mmHg 66%
    15:00 +15°C° 0 mm 4 m/S 739 mmHg 69%
    16:00 +14°C° 0 mm 3 m/S 739 mmHg 72%
    17:00 +14°C° 0 mm 3 m/S 739 mmHg 75%
    18:00 +13°C° 0 mm 3 m/S 739 mmHg 78%
    19:00 +12°C° 0 mm 3 m/S 739 mmHg 81%
    20:00 +11°C° 0 mm 3 m/S 739 mmHg 84%
    21:00 +11°C° 0 mm 3 m/S 739 mmHg 85%
    22:00 +11°C° 0 mm 3 m/S 739 mmHg 85%
    23:00 +10°C° 0 mm 3 m/S 739 mmHg 86%

    Morgen, 21 Oktober, Sonntag

    Zeit Temperatur Niederschläge Wind Luftdruck Luftfeuchtigkeit
    00:00 +10°C° 0 mm 3 m/S 739 mmHg 87%
    01:00 +10°C° 0 mm 3 m/S 739 mmHg 87%
    02:00 +9°C° 0 mm 2 m/S 739 mmHg 88%
    03:00 +9°C° 0 mm 3 m/S 739 mmHg 89%
    04:00 +8°C° 0 mm 3 m/S 739 mmHg 91%
    05:00 +8°C° 0 mm 3 m/S 739 mmHg 92%
    06:00 +8°C° 0 mm 3 m/S 739 mmHg 89%
    07:00 +8°C° 0 mm 3 m/S 739 mmHg 87%
    08:00 +8°C° 0 mm 3 m/S 740 mmHg 84%
    09:00 +10°C° 0 mm 4 m/S 740 mmHg 77%
    10:00 +11°C° 0 mm 4 m/S 740 mmHg 70%
    11:00 +13°C° 0 mm 4 m/S 741 mmHg 62%
    12:00 +13°C° 0 mm 4 m/S 741 mmHg 60%
    13:00 +14°C° 0 mm 4 m/S 741 mmHg 57%
    14:00 +14°C° 0 mm 4 m/S 740 mmHg 54%
    15:00 +13°C° 0 mm 4 m/S 741 mmHg 58%
    16:00 +12°C° 0 mm 3 m/S 741 mmHg 61%
    17:00 +11°C° 0 mm 3 m/S 741 mmHg 64%
    18:00 +10°C° 0 mm 3 m/S 741 mmHg 68%
    19:00 +9°C° 0 mm 3 m/S 741 mmHg 71%
    20:00 +8°C° 0 mm 3 m/S 742 mmHg 74%
    21:00 +8°C° 0 mm 3 m/S 742 mmHg 76%
    22:00 +7°C° 0 mm 3 m/S 742 mmHg 78%
    23:00 +7°C° 0 mm 2 m/S 742 mmHg 79%

    übermorgen, 22 Oktober, Montag

    Zeit Temperatur Niederschläge Wind Luftdruck Luftfeuchtigkeit
    00:00 +6°C° 0 mm 2 m/S 742 mmHg 80%
    01:00 +6°C° 0 mm 2 m/S 742 mmHg 81%
    02:00 +6°C° 0 mm 2 m/S 742 mmHg 82%
    03:00 +5°C° 0 mm 2 m/S 742 mmHg 83%
    04:00 +5°C° 0 mm 2 m/S 742 mmHg 83%
    05:00 +5°C° 0 mm 2 m/S 742 mmHg 84%
    06:00 +5°C° 0 mm 2 m/S 742 mmHg 81%
    07:00 +5°C° 0 mm 2 m/S 742 mmHg 79%
    08:00 +4°C° 0 mm 3 m/S 742 mmHg 76%
    09:00 +7°C° 0 mm 2 m/S 742 mmHg 69%
    10:00 +9°C° 0 mm 2 m/S 742 mmHg 61%
    11:00 +10°C° 0 mm 2 m/S 742 mmHg 54%
    12:00 +12°C° 0 mm 2 m/S 742 mmHg 51%
    13:00 +13°C° 0 mm 2 m/S 741 mmHg 48%
    14:00 +13°C° 0 mm 2 m/S 741 mmHg 45%
    15:00 +12°C° 0 mm 2 m/S 740 mmHg 49%
    16:00 +10°C° 0 mm 2 m/S 740 mmHg 52%
    17:00 +9°C° 0 mm 2 m/S 740 mmHg 56%
    18:00 +8°C° 0 mm 2 m/S 740 mmHg 59%
    19:00 +8°C° 0 mm 2 m/S 740 mmHg 62%
    20:00 +8°C° 0 mm 1 m/S 740 mmHg 66%
    21:00 +7°C° 0 mm 1 m/S 740 mmHg 68%
    22:00 +7°C° 0 mm 1 m/S 740 mmHg 70%
    23:00 +7°C° 0 mm 1 m/S 740 mmHg 72%

    23 Oktober, Dienstag

    Zeit Temperatur Niederschläge Wind Luftdruck Luftfeuchtigkeit
    00:00 +6°C° 0 mm 1 m/S 739 mmHg 74%
    01:00 +5°C° 0 mm 2 m/S 739 mmHg 75%
    02:00 +5°C° 0 mm 2 m/S 739 mmHg 77%
    03:00 +4°C° 0 mm 2 m/S 739 mmHg 79%
    04:00 +4°C° 0 mm 2 m/S 738 mmHg 81%
    05:00 +4°C° 0 mm 2 m/S 738 mmHg 83%
    06:00 +4°C° 0 mm 2 m/S 738 mmHg 81%
    07:00 +3°C° 0 mm 3 m/S 738 mmHg 79%
    08:00 +4°C° 0 mm 3 m/S 738 mmHg 77%
    09:00 +5°C° 0 mm 4 m/S 738 mmHg 71%
    10:00 +7°C° 0 mm 4 m/S 737 mmHg 65%
    11:00 +9°C° 0 mm 5 m/S 737 mmHg 59%
    12:00 +9°C° 0 mm 5 m/S 737 mmHg 61%
    13:00 +9°C° 0 mm 5 m/S 736 mmHg 62%
    14:00 +9°C° 0 mm 5 m/S 736 mmHg 64%
    15:00 +9°C° 0 mm 5 m/S 735 mmHg 66%
    16:00 +8°C° 0 mm 5 m/S 735 mmHg 69%
    17:00 +7°C° 0 mm 4 m/S 734 mmHg 71%
    18:00 +6°C° 0 mm 4 m/S 733 mmHg 73%
    19:00 +7°C° 0 mm 3 m/S 733 mmHg 75%
    20:00 +5°C° 0 mm 3 m/S 732 mmHg 77%
    21:00 +5°C° 0 mm 3 m/S 731 mmHg 76%
    22:00 +5°C° 0 mm 4 m/S 730 mmHg 75%
    23:00 +5°C° 0 mm 4 m/S 729 mmHg 74%

    24 Oktober, Mittwoch

    Zeit Temperatur Niederschläge Wind Luftdruck Luftfeuchtigkeit
    00:00 +5°C° 0.4 mm 5 m/S 728 mmHg 76%
    01:00 +5°C° 0.4 mm 6 m/S 727 mmHg 78%
    02:00 +5°C° 0.4 mm 6 m/S 726 mmHg 79%
    03:00 +5°C° 0.5 mm 7 m/S 724 mmHg 79%
    04:00 +5°C° 0.5 mm 7 m/S 723 mmHg 78%
    05:00 +5°C° 0.5 mm 7 m/S 722 mmHg 77%
    06:00 +6°C° 0.6 mm 7 m/S 721 mmHg 76%
    07:00 +6°C° 0.6 mm 7 m/S 721 mmHg 75%
    08:00 +6°C° 0.6 mm 8 m/S 720 mmHg 75%
    09:00 +7°C° 0.1 mm 9 m/S 720 mmHg 69%
    10:00 +7°C° 0.1 mm 10 m/S 720 mmHg 63%
    11:00 +8°C° 0.1 mm 11 m/S 720 mmHg 57%
    12:00 +7°C° 0.1 mm 11 m/S 720 mmHg 59%
    13:00 +6°C° 0.1 mm 11 m/S 720 mmHg 60%
    14:00 +4°C° 0.1 mm 12 m/S 720 mmHg 62%
    15:00 +3°C° 0.2 mm 11 m/S 721 mmHg 62%
    16:00 +3°C° 0.2 mm 10 m/S 722 mmHg 62%
    17:00 +2°C° 0.2 mm 9 m/S 722 mmHg 62%
    18:00 +1°C° 0 mm 8 m/S 723 mmHg 64%
    19:00 +1°C° 0 mm 8 m/S 723 mmHg 66%
    20:00 0°C° 0 mm 7 m/S 723 mmHg 68%
    21:00 0°C° 0.1 mm 8 m/S 723 mmHg 69%
    22:00 0°C° 0.1 mm 8 m/S 723 mmHg 70%
    23:00 0°C° 0.1 mm 8 m/S 723 mmHg 71%

    25 Oktober, Donnerstag

    Zeit Temperatur Niederschläge Wind Luftdruck Luftfeuchtigkeit
    00:00 0°C° 0.1 mm 8 m/S 724 mmHg 72%
    01:00 0°C° 0.1 mm 9 m/S 724 mmHg 73%
    02:00 +1°C° 0.1 mm 9 m/S 724 mmHg 74%
    03:00 +1°C° 0.3 mm 9 m/S 724 mmHg 74%
    04:00 +1°C° 0.3 mm 10 m/S 724 mmHg 75%
    05:00 +1°C° 0.3 mm 10 m/S 724 mmHg 75%
    06:00 +1°C° 0.2 mm 10 m/S 725 mmHg 75%
    07:00 +1°C° 0.2 mm 11 m/S 725 mmHg 74%
    08:00 +1°C° 0.2 mm 11 m/S 726 mmHg 73%
    09:00 +2°C° 0.1 mm 11 m/S 726 mmHg 71%
    10:00 +2°C° 0.1 mm 11 m/S 727 mmHg 69%
    11:00 +2°C° 0.1 mm 11 m/S 728 mmHg 67%
    12:00 +2°C° 0 mm 10 m/S 728 mmHg 65%
    13:00 +3°C° 0 mm 10 m/S 728 mmHg 63%
    14:00 +3°C° 0 mm 10 m/S 729 mmHg 62%
    15:00 +3°C° 0 mm 9 m/S 729 mmHg 62%
    16:00 +3°C° 0 mm 7 m/S 729 mmHg 63%
    17:00 +3°C° 0 mm 6 m/S 729 mmHg 63%
    18:00 +2°C° 0 mm 6 m/S 729 mmHg 65%
    19:00 +2°C° 0 mm 5 m/S 729 mmHg 67%
    20:00 +3°C° 0 mm 4 m/S 729 mmHg 69%
    21:00 +2°C° 0.4 mm 5 m/S 728 mmHg 70%
    22:00 +2°C° 0.4 mm 6 m/S 728 mmHg 71%
    23:00 +3°C° 0.4 mm 7 m/S 727 mmHg 73%
    Mehr zeigen